Massena, NY

4:47 AM EST on January 17, 2017 (GMT -0500)
Massena International-Richards

Weather History for KMSS - April, 2013

Change the Weather History Date:

Monday, April 29, 2013

  Actual Average Record
Temperature  
Mean Temperature 55 °F 50 °F  
Max Temperature 63 °F 61 °F 82 °F (1990)
Min Temperature 47 °F 38 °F 24 °F (2001)
Degree Days  
Heating Degree Days 10 16  
Month to date heating degree days 653 635  
Since 1 July heating degree days 7185 7766  
Cooling Degree Days 0 0  
Month to date cooling degree days 0 0  
Year to date cooling degree days 0 0  
Growing Degree Days 4 (Base 50)    
Moisture  
Dew Point 43 °F    
Average Humidity 64    
Maximum Humidity 82    
Minimum Humidity 46    
Precipitation  
Precipitation 0.00 in 0.10 in 0.65 in (1958)
Month to date precipitation 1.73 2.72  
Year to date precipitation 4.45 8.76  
Sea Level Pressure  
Sea Level Pressure 30.11 in    
Wind  
Wind Speed 7 mph (South)    
Max Wind Speed 18 mph    
Max Gust Speed 25 mph    
Visibility 10 miles    
Events      
T = Trace of Precipitation, MM = Missing Value Source: NWS Daily Summary

Daily Weather History Graph

Daily Weather History Graph

Search for Another Location

Airport or City:

Trip Planner

Search our weather history database for the weather conditions in past years. The results will help you decide how hot, cold, wet, or windy it might be!

Date:

Astronomy

Apr. 29, 2013 Rise Set
Actual Time 5:51 AM EDT 8:02 PM EDT
Civil Twilight 5:19 AM EDT 8:34 PM EDT
Nautical Twilight 4:39 AM EDT 9:14 PM EDT
Astronomical Twilight 3:55 AM EDT 9:59 PM EDT
Moon No Moon Rise 9:05 AM EDT (4/29)
Length of Visible Light 15h 15m
Length of Day
14h 11m
Waning Gibbous, 80% of the Moon is Illuminated
Apr 29
Waning Gibbous
May 2
Last Quarter
May 9
New
May 18
First Quarter
May 25
Full

Hourly Weather History & Observations

Time (EDT) Temp. Dew Point Humidity Pressure Visibility Wind Dir Wind Speed Gust Speed Precip Events Conditions
12:53 AM 50.0 °F 39.0 °F 66% 30.08 in 10.0 mi Calm Calm - N/A   Scattered Clouds
1:53 AM 53.1 °F 39.0 °F 59% 30.10 in 10.0 mi SSW 6.9 mph - N/A   Mostly Cloudy
2:53 AM 52.0 °F 41.0 °F 66% 30.11 in 10.0 mi SSW 4.6 mph - N/A   Clear
3:53 AM 48.9 °F 39.0 °F 69% 30.11 in 10.0 mi Calm Calm - N/A   Clear
4:53 AM 46.9 °F 41.0 °F 80% 30.12 in 10.0 mi Calm Calm - N/A   Scattered Clouds
5:53 AM 48.0 °F 41.0 °F 77% 30.12 in 10.0 mi Calm Calm - N/A   Overcast
6:53 AM 48.9 °F 43.0 °F 80% 30.14 in 10.0 mi Calm Calm - N/A   Overcast
7:53 AM 55.0 °F 43.0 °F 64% 30.14 in 10.0 mi SE 5.8 mph - N/A   Overcast
8:53 AM 59.0 °F 42.1 °F 53% 30.13 in 10.0 mi SSE 10.4 mph - N/A   Overcast
9:53 AM 63.0 °F 41.0 °F 45% 30.12 in 10.0 mi SSE 13.8 mph - N/A   Overcast
10:53 AM 61.0 °F 42.1 °F 50% 30.12 in 10.0 mi SW 11.5 mph - N/A   Overcast
11:53 AM 61.0 °F 42.1 °F 50% 30.12 in 10.0 mi SSW 6.9 mph - N/A   Overcast
12:53 PM 61.0 °F 44.1 °F 54% 30.11 in 10.0 mi SW 10.4 mph - N/A   Overcast
1:53 PM 61.0 °F 44.1 °F 54% 30.11 in 10.0 mi South 8.1 mph - N/A   Overcast
2:53 PM 61.0 °F 45.0 °F 56% 30.10 in 10.0 mi SSW 8.1 mph - N/A   Overcast
3:53 PM 62.1 °F 45.0 °F 53% 30.09 in 10.0 mi South 9.2 mph - N/A   Overcast
4:53 PM 62.1 °F 45.0 °F 53% 30.09 in 10.0 mi South 11.5 mph - N/A   Overcast
5:53 PM 63.0 °F 45.0 °F 52% 30.09 in 10.0 mi South 12.7 mph - N/A   Overcast
6:53 PM 61.0 °F 45.0 °F 56% 30.10 in 10.0 mi South 8.1 mph - N/A   Overcast
7:53 PM 60.1 °F 45.0 °F 57% 30.11 in 10.0 mi SSE 5.8 mph - N/A   Overcast
8:53 PM 59.0 °F 45.0 °F 60% 30.12 in 10.0 mi SSE 4.6 mph - N/A   Overcast
9:53 PM 57.9 °F 44.1 °F 60% 30.14 in 10.0 mi SSE 5.8 mph - N/A   Overcast
10:53 PM 57.0 °F 45.0 °F 64% 30.14 in 10.0 mi SE 5.8 mph - N/A   Overcast
11:53 PM 57.0 °F 45.0 °F 64% 30.14 in 10.0 mi SSE 6.9 mph - N/A   Overcast